Location: Days
(41.3591°N, 106.7339°W)
Time: 02:03:17
(UTC+00:00)

UWE-3 - Pass Details

Date: 02 July 2022
Orbit: 583 x 677 km, 97.7° (Epoch: 09 August)

Event Time Altitude Azimuth Distance (km) Brightness Sun altitude
Rises 10:40:04 0° 10° (N) 2,898 ? -9.5°
Reaches altitude 10° 10:42:14 10° 9° (N) 2,002 ? -9.2°
Maximum altitude 10:46:35 76° 285° (WNW) 659 ? -8.6°
Drops below altitude 10° 10:51:03 10° 199° (SSW) 2,045 ? -7.9°
Enters shadow 10:51:59 - 198° (SSW) 2,430 ? -7.8°
